Weather History for Springfield, MO

Change the Weather History Date:

Tuesday, November 25, 2014

  Actual Average Record
Temperature  
Mean Temperature 35 °F 42 °F  
Max Temperature 45 °F 52 °F 74 °F (1990)
Min Temperature 24 °F 31 °F 9 °F (1950)
Degree Days  
Heating Degree Days 30 23  
Month to date heating degree days 625 448  
Since 1 July heating degree days 857 756  
Cooling Degree Days 0 0  
Month to date cooling degree days 0 0  
Year to date cooling degree days 1470 1387  
Moisture  
Dew Point 16 °F    
Average Humidity 53    
Maximum Humidity 75    
Minimum Humidity 30    
Precipitation  
Precipitation 0.00 in 0.14 in 1.69 in (1952)
Month to date precipitation 2.29 3.53  
Year to date precipitation 36.81 41.84  
Snow  
Snow 0.00 in - - ()
Month to date snowfall 1.5  
Since 1 July snowfall 1.5  
Since 1 September snowfall 1.5  
Snow Depth 0.00 in    
Sea Level Pressure  
Sea Level Pressure 30.18 in    
Wind  
Wind Speed 6 mph (West)    
Max Wind Speed 12 mph    
Max Gust Speed 13 mph    
Visibility 10 miles    
Events      
T = Trace of Precipitation, MM = Missing Value Source: NWS Daily Summary

Daily Weather History Graph

Daily Weather History Graph

Search for Another Location

Airport:

Trip Planner

Search our weather history database for the weather conditions in past years. The results will help you decide how hot, cold, wet, or windy it might be!

Date:

Astronomy

Nov. 25, 2014 Rise Set
Actual Time 7:02 AM CST 4:57 PM CST
Civil Twilight 6:34 AM CST 5:26 PM CST
Nautical Twilight 6:02 AM CST 5:58 PM CST
Astronomical Twilight 5:31 AM CST 6:29 PM CST
Moon 9:49 AM CST (11/25) 8:22 PM CST (11/25)
Length of Visible Light 10h 51m
Length of Day
9h 55m
Waxing Crescent, 13% of the Moon is Illuminated
Nov 25
Waxing Crescent
Nov 29
First Quarter
Dec 6
Full
Dec 14
Last Quarter
Dec 21
New

Hourly Weather History & Observations

Time (CST) Temp. Windchill Dew Point Humidity Pressure Visibility Wind Dir Wind Speed Gust Speed Precip Events Conditions
12:52 AM 33.1 °F 26.9 °F 18.0 °F 54% 30.12 in 10.0 mi WNW 6.9 mph - N/A   Clear
1:52 AM 30.9 °F 24.3 °F 17.1 °F 57% 30.13 in 10.0 mi WNW 6.9 mph - N/A   Clear
2:52 AM 30.0 °F 25.2 °F 15.1 °F 54% 30.14 in 10.0 mi NW 4.6 mph - N/A   Clear
3:52 AM 28.9 °F 21.1 °F 12.9 °F 51% 30.15 in 10.0 mi NW 8.1 mph - N/A   Clear
4:52 AM 28.0 °F 22.8 °F 12.9 °F 53% 30.17 in 10.0 mi WNW 4.6 mph - N/A   Clear
5:52 AM 26.1 °F 19.4 °F 12.9 °F 58% 30.19 in 10.0 mi WNW 5.8 mph - N/A   Clear
6:52 AM 24.1 °F 18.2 °F 12.9 °F 62% 30.22 in 10.0 mi NW 4.6 mph - N/A   Clear
7:52 AM 26.1 °F 19.4 °F 12.9 °F 58% 30.24 in 10.0 mi WNW 5.8 mph - N/A   Clear
8:52 AM 30.0 °F 24.1 °F 14.0 °F 51% 30.26 in 10.0 mi WNW 5.8 mph - N/A   Clear
9:52 AM 33.1 °F 27.7 °F 15.1 °F 48% 30.27 in 10.0 mi WNW 5.8 mph - N/A   Clear
10:52 AM 36.0 °F 29.6 °F 17.1 °F 46% 30.27 in 10.0 mi West 8.1 mph - N/A   Clear
11:52 AM 37.9 °F 34.4 °F 16.0 °F 41% 30.24 in 10.0 mi Variable 4.6 mph - N/A   Clear
12:52 PM 41.0 °F 37.1 °F 15.1 °F 35% 30.20 in 10.0 mi Variable 5.8 mph - N/A   Clear
1:52 PM 43.0 °F 39.5 °F 14.0 °F 31% 30.17 in 10.0 mi SW 5.8 mph - N/A   Clear
2:52 PM 44.1 °F 40.1 °F 15.1 °F 31% 30.16 in 10.0 mi Variable 6.9 mph - N/A   Clear
3:52 PM 42.8 °F 39.3 °F 15.8 °F 34% 30.13 in 10.0 mi WSW 5.8 mph - N/A   Clear
4:52 PM 41.0 °F 38.0 °F 16.0 °F 36% 30.15 in 10.0 mi West 4.6 mph - N/A   Clear
5:52 PM 33.1 °F - 19.0 °F 56% 30.16 in 10.0 mi Calm Calm - N/A   Clear
6:52 PM 30.0 °F 26.5 °F 19.0 °F 64% 30.17 in 10.0 mi South 3.5 mph - N/A   Clear
7:52 PM 26.1 °F 20.5 °F 19.0 °F 75% 30.17 in 10.0 mi South 4.6 mph - N/A   Clear
8:52 PM 28.9 °F 23.9 °F 19.0 °F 67% 30.16 in 10.0 mi SSE 4.6 mph - N/A   Clear
9:52 PM 28.9 °F 22.8 °F 21.0 °F 72% 30.16 in 10.0 mi SSE 5.8 mph - N/A   Clear
10:52 PM 28.9 °F 21.1 °F 19.9 °F 69% 30.14 in 10.0 mi SSE 8.1 mph - N/A   Clear
11:52 PM 30.9 °F 21.7 °F 21.0 °F 67% 30.11 in 10.0 mi SSE 11.5 mph - N/A   Clear